Theta_e
326 325 325 325 326 325 324 325 326 325 324 323 325 327 324 321 322 322 323 324 324 324 325 325 326 328 330 331 331 330 329 329 329 331 331 331 331 330 330 329 328 326 324 324 324 322 320 317 314 311 310 309 309 309 308 308 308 308 307 307 307 306 306 306 305 305 306 306 306 306 307 307 307 307 307 307 307 307 307 307 307 307 308 308 308
327 326 326 327 327 328 328 328 329 329 329 327 326 327 325 324 325 325 326 326 327 325 324 325 325 327 328 329 330 329 328 327 329 330 330 330 330 330 330 329 328 326 324 324 324 324 323 321 318 315 313 311 309 309 309 308 308 308 308 308 307 307 307 307 306 306 306 305 306 306 306 306 307 307 307 307 307 307 307 307 307 307 307 307 308
328 327 327 328 328 328 329 328 328 328 328 329 328 327 326 326 327 327 328 328 328 328 327 326 325 325 327 328 329 328 328 327 328 330 330 330 330 330 329 328 328 326 325 324 324 324 326 326 324 321 318 315 312 310 310 309 309 309 309 309 308 308 307 307 307 307 306 306 306 306 306 306 306 307 307 307 307 307 307 307 307 307 307 307 307
328 328 328 328 327 327 327 327 327 327 327 328 328 327 326 326 326 327 328 328 329 330 329 329 327 326 326 327 328 329 329 328 328 329 329 330 330 330 329 328 327 326 325 325 324 323 325 327 326 324 322 320 318 314 311 310 310 310 309 309 309 309 308 308 308 307 307 306 306 306 306 306 306 306 306 306 306 307 307 306 307 307 307 307 307
328 328 328 328 327 327 328 328 327 327 327 327 327 326 326 326 326 326 326 327 329 330 329 330 329 329 328 329 329 329 329 329 328 328 329 330 330 330 329 328 327 327 325 325 324 323 325 327 326 325 325 325 323 320 317 313 311 311 311 311 310 310 309 309 308 308 307 307 307 306 306 306 306 306 306 306 306 306 306 306 307 307 307 307 307
328 328 329 328 328 328 328 328 327 328 328 327 327 327 327 327 327 326 325 327 328 329 329 330 330 330 329 329 329 329 328 328 328 328 329 330 331 330 329 327 327 327 326 325 325 323 324 327 327 326 326 326 324 323 323 318 314 313 311 311 310 309 309 309 309 308 308 308 307 307 306 306 305 305 305 305 305 306 306 306 306 307 306 307 307
327 328 328 328 328 328 328 328 328 328 328 327 327 327 327 328 328 327 326 326 327 328 329 330 329 330 329 329 328 328 328 327 327 327 329 330 330 328 327 327 327 327 326 325 326 325 324 325 326 327 326 325 324 324 324 321 319 316 312 311 310 309 308 307 308 308 308 308 308 308 307 307 306 306 305 305 305 305 306 306 306 307 307 307 307
326 328 328 328 327 327 327 328 328 328 328 327 328 328 328 328 328 328 326 325 326 328 329 329 329 329 329 328 328 328 327 326 326 327 329 329 328 326 327 328 327 327 326 325 326 326 325 324 324 326 326 325 324 324 324 323 323 319 316 316 316 315 314 313 311 310 309 309 308 308 308 307 307 306 306 305 305 305 305 306 306 306 307 307 307
328 328 329 328 327 327 327 328 329 328 327 327 327 327 326 326 326 326 326 325 324 326 329 329 328 328 328 328 327 327 326 326 325 326 327 328 327 326 328 328 327 327 326 325 326 326 326 325 323 324 325 324 323 323 323 324 324 320 319 321 321 320 321 322 320 316 314 313 311 310 309 308 308 307 307 306 306 306 306 306 306 306 306 307 307
329 329 328 328 327 326 326 327 328 327 326 326 326 326 325 324 324 325 326 326 325 325 326 327 327 327 327 327 327 327 326 326 326 326 327 328 328 328 327 327 328 328 327 326 327 326 326 326 323 322 324 325 324 324 323 323 323 322 322 323 323 323 324 325 325 323 320 319 316 313 311 310 309 308 308 307 306 306 306 306 306 306 306 307 307
329 328 327 327 326 325 326 327 327 327 327 326 326 326 325 324 324 325 325 326 325 325 326 326 326 326 326 327 327 327 327 326 326 326 327 329 329 328 327 327 328 328 327 326 326 326 326 326 324 323 324 324 325 325 324 324 324 325 325 325 325 325 325 326 327 326 325 325 323 319 315 312 310 309 308 307 307 307 307 307 307 307 307 307 307
328 328 326 326 327 326 326 327 327 327 327 327 327 326 326 325 324 324 324 325 325 325 326 326 325 325 326 327 328 328 327 327 326 327 327 328 328 328 327 327 328 328 327 326 326 327 326 326 325 324 324 324 324 325 324 324 325 325 326 326 326 326 326 327 328 327 327 326 327 325 320 316 313 311 310 309 308 308 308 308 308 308 308 308 308
327 327 327 327 327 326 327 327 327 327 327 327 327 327 326 325 324 324 324 325 325 326 327 327 326 326 327 327 328 329 328 327 327 327 327 327 328 328 328 328 328 328 327 326 326 327 326 327 326 325 325 324 324 324 324 325 325 325 326 326 326 326 327 328 327 327 325 324 326 327 325 321 317 315 313 312 310 310 310 310 310 309 309 310 310
327 327 328 327 327 327 327 328 328 327 327 326 326 327 327 326 325 324 324 325 325 326 326 327 327 326 326 327 328 329 328 328 328 327 327 327 327 328 328 328 328 328 328 326 326 327 326 326 326 326 325 324 324 325 325 325 325 325 326 325 325 326 327 326 326 326 325 324 325 326 327 325 322 319 316 315 314 313 312 312 313 313 314 315 316
327 328 327 327 327 327 328 327 327 327 327 326 326 327 327 326 326 326 325 325 325 326 326 327 327 326 326 327 328 328 328 328 328 327 327 327 327 327 327 328 328 328 327 327 327 326 325 325 326 326 326 325 324 324 325 325 326 325 325 324 324 325 326 325 325 325 325 325 326 326 327 327 325 323 321 318 317 317 317 317 318 319 320 321 322
326 327 327 327 327 326 327 326 327 327 327 327 327 327 326 326 327 326 327 326 325 326 326 327 327 327 327 326 326 327 326 327 327 327 327 327 326 326 327 328 327 327 326 325 326 325 324 324 326 326 325 325 325 324 324 325 325 325 324 324 324 324 325 325 324 324 324 324 326 326 327 327 326 326 325 322 320 319 320 321 321 322 323 324 324
325 326 327 327 326 326 326 326 327 327 327 326 327 327 326 326 327 327 327 327 326 326 326 327 327 327 327 326 326 326 325 325 326 326 326 326 326 326 326 327 327 326 325 324 324 323 323 324 325 325 324 325 325 324 324 325 325 325 324 324 324 324 324 324 324 324 324 324 325 326 326 325 326 326 326 325 324 322 322 322 322 323 324 324 324
326 326 326 327 326 325 326 326 326 326 325 325 325 325 325 326 327 327 327 327 327 326 326 326 327 327 326 326 325 326 325 325 325 325 325 325 325 325 325 325 326 326 326 325 324 323 323 324 325 325 324 324 324 324 324 324 325 324 324 324 323 323 323 323 323 324 324 325 324 325 325 325 325 325 325 325 325 324 324 324 323 324 324 324 324
326 326 326 326 325 325 325 325 324 324 324 324 324 324 324 325 326 326 326 326 326 326 326 326 326 326 327 326 325 325 325 325 324 324 325 326 324 324 324 325 325 325 325 325 324 324 324 324 325 324 324 323 323 324 324 324 324 323 323 323 322 322 321 320 321 323 324 324 324 324 324 323 323 323 324 324 324 324 325 324 324 324 324 324 324
325 324 324 324 323 322 321 321 321 321 322 322 322 323 323 324 325 324 325 325 326 326 326 326 326 326 326 327 326 326 326 325 324 323 324 326 325 324 324 325 325 325 325 325 324 324 324 324 324 323 323 323 323 323 323 324 324 323 322 321 319 318 317 317 316 318 319 319 319 318 317 316 316 317 318 319 319 319 320 320 319 320 322 323 323
321 319 319 319 318 317 317 318 318 318 319 320 321 321 322 323 324 323 323 325 326 325 325 325 325 326 326 327 326 326 326 325 324 323 323 324 325 325 325 325 324 324 324 323 323 323 323 322 323 323 323 323 323 323 323 323 322 321 319 317 316 315 314 313 312 311 311 311 310 309 309 308 308 309 309 309 309 310 310 310 311 312 314 316 318
318 316 316 316 316 316 317 317 317 317 317 318 320 321 322 322 323 323 322 323 325 325 324 324 324 325 326 327 326 325 325 324 324 324 323 323 325 325 325 324 323 322 322 322 322 321 322 322 323 323 323 323 323 323 322 321 320 319 317 316 315 313 311 309 308 307 307 307 307 306 306 306 306 306 306 306 306 306 306 306 306 306 306 307 308
318 316 317 317 317 317 317 317 317 317 317 318 320 322 322 322 323 323 323 323 324 324 323 323 324 325 326 326 325 324 324 324 324 324 323 322 323 324 324 323 322 321 322 322 322 322 323 323 324 323 323 323 322 321 320 319 318 317 315 313 311 309 308 307 307 307 307 307 307 307 307 307 306 306 306 306 306 306 306 306 306 306 305 306 306
319 317 318 319 319 319 319 319 318 317 318 320 321 322 322 322 322 323 323 323 323 323 323 323 323 324 325 325 324 324 324 324 324 324 324 322 322 323 322 321 321 320 321 322 322 323 323 323 323 323 323 323 321 320 319 317 315 312 311 309 308 307 307 308 308 308 308 307 307 308 308 307 307 307 306 306 306 306 306 306 306 306 306 306 306
319 317 319 320 320 319 319 319 318 316 317 320 321 320 320 321 323 323 324 323 323 323 323 323 323 323 324 324 324 324 324 324 324 323 323 323 322 322 321 321 320 320 321 321 322 322 322 323 322 322 322 322 320 318 316 314 310 308 307 307 307 308 308 308 307 306 305 305 304 304 305 306 306 306 306 306 306 306 306 306 306 305 305 305 305
320 318 318 319 318 319 318 318 317 314 315 319 319 319 320 321 323 324 323 323 322 322 322 322 322 323 323 324 324 324 325 324 323 323 323 323 322 322 321 320 319 319 320 320 320 320 320 320 320 320 319 318 316 313 310 309 308 307 308 308 308 308 307 306 306 305 304 303 302 301 301 302 303 303 304 304 304 304 304 304 304 304 304 304 304
319 317 317 317 317 318 318 318 314 310 313 317 318 318 319 320 322 323 323 322 321 320 320 320 321 321 322 323 324 324 324 324 324 323 323 323 323 322 320 319 317 316 316 316 316 317 317 316 315 313 312 310 309 308 307 307 308 308 308 308 308 308 308 308 308 307 307 306 305 304 302 301 301 301 301 301 301 301 301 301 301 301 301 302 302
314 314 315 316 317 317 316 316 312 307 310 314 315 317 319 319 320 321 321 321 319 319 319 319 319 320 322 323 323 324 324 324 324 323 323 323 322 321 318 317 316 314 312 311 312 312 311 310 309 307 307 307 307 308 308 308 308 309 309 309 309 308 309 310 309 309 309 309 309 308 307 305 303 301 300 300 300 300 300 300 300 300 300 300 300
310 312 315 316 317 317 315 313 309 306 307 309 311 314 316 319 320 319 319 318 317 317 317 316 316 319 321 322 323 323 323 323 323 323 323 322 321 319 315 314 315 315 312 309 309 309 309 308 308 307 308 308 309 309 309 309 309 309 309 309 309 309 309 310 310 310 310 310 311 311 311 310 309 305 302 300 300 300 300 300 300 300 300 300 300
311 313 315 316 317 317 315 311 307 305 306 305 306 308 310 314 317 318 318 317 316 316 314 314 316 319 320 320 321 322 321 321 321 321 322 321 319 316 313 312 312 313 314 312 310 309 309 309 309 309 309 310 309 309 309 309 309 309 309 310 310 310 310 310 311 311 311 311 311 311 311 311 311 310 306 302 300 300 300 300 300 300 300 300 300
312 313 315 317 316 316 314 309 304 304 305 304 305 305 306 309 312 315 316 315 314 314 313 313 317 320 319 317 317 318 318 319 319 320 320 320 317 314 312 312 311 310 312 312 311 309 308 309 309 309 310 310 310 309 309 309 309 310 310 310 310 310 310 310 311 311 311 311 311 311 311 312 312 311 308 304 301 300 300 300 300 300 301 301 300
312 311 312 315 315 315 313 307 303 303 304 304 304 304 305 306 306 308 311 313 313 314 313 314 317 319 319 317 316 316 316 316 317 318 319 318 317 314 313 313 311 309 309 310 309 309 308 309 310 310 310 310 310 309 309 309 310 310 310 310 310 310 310 311 311 311 311 311 311 311 311 312 312 312 309 305 302 301 300 300 300 300 300 301 301
309 307 308 311 313 313 310 306 303 304 304 304 304 304 305 305 304 305 307 310 312 313 314 315 316 318 318 317 316 316 316 316 315 316 317 317 316 314 314 314 312 310 309 308 308 308 308 310 310 311 310 310 310 310 310 310 310 310 310 311 311 311 311 311 311 311 311 311 311 311 312 312 313 312 309 305 302 301 301 300 300 300 300 300 300
307 306 306 308 310 311 308 305 304 304 305 305 305 306 306 305 305 304 305 307 310 312 314 315 315 316 317 316 315 316 317 317 316 316 316 316 315 314 314 314 313 312 310 309 308 307 309 311 311 311 310 310 310 310 310 310 310 310 310 311 311 311 311 311 311 311 311 311 311 312 312 313 312 311 308 304 302 301 301 301 300 300 300 300 300
307 306 305 307 309 309 307 305 305 305 306 306 307 307 307 307 307 307 306 307 308 310 313 315 315 315 315 315 315 316 316 316 316 316 316 316 315 315 315 314 314 313 312 310 309 308 309 310 311 311 311 311 310 310 311 311 310 310 310 311 311 311 311 311 311 311 311 311 312 312 313 312 311 309 306 304 302 301 301 300 300 300 300 300 300
307 305 305 306 308 309 307 306 306 307 307 307 308 308 309 311 311 310 310 309 309 309 310 312 314 314 314 314 315 315 315 315 315 315 315 315 315 315 315 315 315 314 314 312 311 310 309 309 311 311 311 311 311 311 311 311 311 311 311 311 311 311 311 311 311 311 311 312 312 312 312 312 310 307 305 303 302 301 300 300 300 300 300 300 300
305 304 304 306 307 308 307 307 307 308 308 308 309 310 312 314 315 314 314 314 313 312 310 310 311 311 312 313 314 314 314 313 313 314 314 314 314 315 315 316 315 315 315 313 311 311 310 309 310 311 311 311 312 311 311 311 312 312 311 311 311 311 311 311 311 311 312 312 312 312 312 311 309 306 304 302 301 300 300 300 300 300 299 299 299
305 304 304 305 306 307 307 308 308 309 310 310 311 313 314 316 316 316 317 317 316 315 314 314 313 312 312 311 312 312 313 313 312 312 313 313 313 313 314 315 316 316 316 313 312 312 312 310 310 311 312 312 312 312 312 312 312 312 312 312 311 311 311 311 311 312 312 312 312 312 312 310 308 305 303 301 300 300 299 299 299 299 299 299 299
306 304 304 305 306 307 307 308 309 310 311 312 312 314 315 316 317 317 317 317 317 317 316 317 317 317 316 314 312 312 312 312 312 312 313 313 313 313 313 313 315 315 314 313 313 314 314 311 311 312 313 312 312 313 313 313 312 312 312 312 311 311 311 311 312 312 312 312 312 312 311 309 306 303 301 300 299 299 299 299 299 298 298 298 298
308 304 305 306 307 307 308 309 309 310 310 310 311 312 313 315 316 317 317 316 317 318 317 317 318 318 318 317 316 315 314 313 312 312 314 314 315 314 314 313 313 313 313 313 315 316 315 313 312 313 314 313 314 314 314 313 313 312 312 312 311 311 312 312 312 312 312 312 312 311 310 307 304 301 300 299 299 298 298 298 298 298 298 297 297
312 306 305 306 308 309 309 309 309 309 309 309 309 310 311 313 315 317 317 317 318 318 318 318 318 318 318 318 318 318 318 317 315 314 313 314 315 315 315 314 314 314 314 315 316 316 315 314 314 314 314 314 314 314 314 313 313 312 312 312 312 312 312 312 312 312 312 312 311 310 308 305 302 300 299 299 298 298 297 297 297 297 297 297 297
315 309 306 307 309 310 309 309 309 309 309 310 310 310 311 313 315 317 317 317 318 319 319 318 318 317 317 317 316 316 317 318 318 317 315 314 315 315 316 316 315 315 316 316 316 316 316 315 314 314 315 315 315 315 314 314 313 313 312 312 312 312 312 312 312 312 312 311 310 307 304 301 300 299 298 298 298 297 297 297 297 296 296 296 296
316 312 308 307 308 310 311 311 311 309 309 310 310 310 311 314 316 318 318 318 319 319 319 319 318 317 316 315 315 315 315 316 318 319 318 316 315 315 315 315 316 316 316 316 316 316 316 315 315 315 315 315 315 314 314 314 314 313 313 313 313 312 312 312 312 312 311 309 306 303 300 299 299 298 298 298 298 297 297 297 296 296 296 296 296
316 313 311 309 309 311 314 315 313 310 309 310 310 310 311 314 317 319 319 320 320 320 320 319 319 317 316 315 315 315 314 315 317 319 319 318 318 316 316 315 315 316 316 316 316 316 316 316 316 315 315 314 314 314 314 314 314 314 313 313 313 312 312 312 312 311 308 305 302 300 299 299 299 298 298 298 297 297 297 296 296 296 296 295 295
317 314 312 313 313 315 317 318 315 311 310 310 309 310 310 313 317 319 319 319 320 320 320 320 319 318 317 316 316 315 315 315 316 318 319 319 319 318 317 316 316 315 316 316 316 316 316 316 316 316 315 315 315 314 314 314 313 313 313 313 313 312 312 312 310 307 304 301 300 299 299 299 298 298 297 297 297 297 296 296 296 296 295 295 295
318 316 314 315 316 317 317 316 313 312 312 311 310 310 311 314 317 318 319 319 320 320 319 319 319 318 317 317 316 315 315 315 316 317 318 318 318 318 318 318 317 317 317 317 316 316 316 316 316 316 315 315 315 314 314 314 314 314 313 313 313 312 311 309 306 303 300 299 299 299 299 298 298 297 297 297 296 296 296 296 295 295 295 295 295
319 317 316 315 315 314 313 311 310 311 312 311 309 310 313 316 317 318 319 319 319 319 319 319 319 318 318 317 315 315 315 316 317 317 317 317 318 318 318 317 317 318 318 317 317 317 317 316 316 316 316 316 315 315 314 314 314 313 313 311 310 308 306 303 301 299 299 299 299 298 298 298 297 297 297 297 296 296 296 295 295 295 295 295 295
319 317 316 316 316 314 311 310 311 312 311 309 309 311 315 317 317 318 319 319 319 318 319 319 318 318 317 316 315 315 315 316 317 317 317 318 318 318 318 316 316 316 315 315 315 315 316 316 316 316 315 315 315 314 314 313 312 311 308 306 304 302 300 299 299 299 299 298 298 298 297 297 297 297 296 296 296 296 295 295 295 295 294 294 294
319 317 317 318 317 315 314 313 314 313 311 311 313 315 317 317 317 318 319 319 319 319 319 319 318 318 317 316 315 315 315 316 317 317 318 318 318 317 316 312 309 309 308 309 309 310 311 312 312 313 313 312 312 311 310 309 306 304 302 300 299 299 299 298 298 298 298 297 297 297 296 296 296 296 296 296 295 295 295 295 295 294 294 294 294
319 319 319 319 318 318 317 317 316 315 313 315 317 318 318 318 318 318 319 319 319 319 319 319 318 318 317 316 315 315 315 315 317 317 318 318 317 315 311 306 303 303 304 305 305 305 306 306 307 307 307 306 305 304 303 302 300 299 298 298 299 298 298 298 298 297 297 297 296 296 296 296 296 295 295 295 295 295 295 294 294 294 294 294 294
320 320 319 320 320 319 319 319 318 318 317 317 317 318 318 318 318 318 318 319 319 319 318 318 318 317 316 316 315 315 316 316 317 317 316 314 312 310 306 303 302 302 303 303 303 303 303 302 302 302 302 302 301 301 300 299 298 298 298 298 298 298 297 297 297 296 296 296 296 296 295 295 295 295 294 294 294 294 294 294 294 294 294 294 294
Wind_Speed
9 8 9 10 11 10 8 8 8 7 7 7 8 10 9 8 8 8 9 10 10 10 10 10 11 11 11 9 7 6 4 4 3 2 2 1 1 1 2 3 3 4 4 4 4 3 3 3 2 2 3 3 3 3 3 3 3 3 3 3 3 3 3 3 3 4 4 4 4 4 5 5 6 6 6 7 7 7 8 8 8 8 9 9 9
9 9 9 10 10 10 9 8 7 6 6 7 8 8 7 7 6 7 8 9 9 9 9 10 10 11 11 10 8 6 4 4 3 2 2 1 1 1 2 2 3 3 3 4 3 3 4 4 3 2 2 3 3 3 3 2 2 2 2 2 2 2 3 3 3 3 3 3 4 4 4 4 5 5 6 6 6 7 7 7 8 8 8 9 9
10 9 9 10 10 10 9 9 7 7 8 8 9 7 7 6 6 7 7 8 9 9 9 9 9 10 11 10 8 6 4 3 2 2 2 2 1 1 1 1 2 2 2 3 4 4 4 4 4 5 3 2 1 2 2 2 1 1 1 1 1 1 2 2 2 2 3 3 3 3 3 4 4 4 5 5 6 6 6 6 7 7 8 8 9
11 9 9 9 9 9 9 9 8 8 8 9 8 7 7 7 7 7 7 8 8 9 9 8 9 9 10 9 7 5 4 3 2 3 3 3 2 1 0 1 1 1 1 2 4 5 5 1 4 6 5 4 3 1 0 1 1 1 1 1 0 0 1 1 2 2 2 3 3 3 3 4 4 4 4 5 5 5 5 6 6 6 7 7 8
10 9 9 8 8 8 7 8 8 8 8 8 8 8 7 7 7 7 7 7 8 9 8 8 9 9 9 8 6 5 4 4 4 4 4 4 3 2 3 2 1 1 0 1 3 5 5 3 3 4 4 4 6 5 3 2 2 2 2 2 2 1 1 1 2 2 2 3 2 3 3 3 3 4 4 4 4 4 5 5 5 6 6 6 7
10 9 8 8 7 6 5 6 7 7 8 8 9 8 8 7 7 6 5 6 7 8 8 8 8 8 8 7 7 6 5 5 5 6 5 5 5 4 3 3 2 2 1 1 1 3 4 4 3 2 2 3 6 6 5 6 7 7 5 4 3 3 3 2 2 2 2 2 2 2 2 2 2 3 3 3 3 4 4 4 5 5 6 6 6
10 9 8 7 6 6 5 5 6 6 7 8 9 8 8 8 7 5 4 5 6 7 8 7 6 6 7 7 7 7 6 5 6 7 7 7 6 3 3 4 3 3 2 2 1 2 3 4 6 5 2 2 3 3 5 6 9 11 9 8 8 7 7 6 5 4 3 2 2 2 2 2 2 2 2 2 3 3 4 4 5 5 5 6 6
8 9 8 7 6 6 6 5 5 5 5 6 7 7 7 7 7 6 5 5 6 7 8 7 6 6 6 6 7 7 6 6 6 7 8 8 5 4 6 5 4 3 3 3 2 2 3 4 6 7 4 3 4 4 3 3 7 11 12 12 13 13 13 12 11 10 8 7 5 4 3 2 1 1 2 2 3 3 4 4 5 5 5 5 5
9 8 8 8 7 7 7 6 4 4 5 6 6 7 7 6 6 6 6 6 6 7 7 7 6 6 6 6 6 6 6 7 7 7 8 8 6 7 9 7 5 5 4 5 4 2 3 3 4 6 6 6 6 6 4 2 5 9 11 12 12 13 14 14 14 14 13 12 10 8 6 4 2 2 2 2 3 4 4 4 5 5 5 5 5
9 8 8 8 8 7 7 5 4 4 5 5 6 6 6 6 6 6 7 7 6 6 6 6 7 6 7 6 6 6 7 7 7 7 8 8 8 9 8 7 8 6 5 7 5 4 4 2 3 6 6 7 7 7 7 5 5 7 7 7 7 8 9 9 10 11 13 13 13 12 10 8 6 4 3 3 4 4 4 5 5 5 5 5 5
8 8 7 7 7 7 6 5 5 5 5 5 5 6 5 6 6 6 6 7 7 6 6 6 7 7 7 7 7 6 6 6 6 7 7 8 9 8 6 8 10 8 7 8 7 6 6 3 3 6 6 6 6 7 7 7 6 5 5 4 4 7 7 6 5 5 8 11 13 13 12 11 9 7 6 5 5 5 5 5 5 4 4 4 4
8 8 8 7 7 7 7 6 6 6 6 6 6 6 6 6 7 6 6 7 7 6 6 6 7 8 8 8 8 7 7 7 7 7 7 8 9 6 6 9 9 9 8 8 8 8 6 4 4 6 6 6 6 6 5 4 3 3 3 2 3 4 5 4 3 2 5 8 9 11 11 11 10 9 8 7 6 5 5 5 4 4 4 4 4
8 9 8 8 8 8 7 7 8 8 8 8 7 7 7 7 7 7 7 7 7 7 7 7 8 9 10 9 9 9 8 7 7 7 7 7 8 6 6 8 8 8 8 7 7 6 4 4 3 5 6 6 6 5 4 2 1 1 1 1 2 2 3 3 2 3 5 6 6 6 8 10 10 9 8 7 6 6 6 6 5 5 5 5 4
8 8 8 8 8 8 7 8 8 9 8 8 8 8 8 7 7 7 7 7 7 8 9 9 9 10 9 10 10 9 8 8 7 7 7 7 6 6 5 5 5 7 7 7 7 5 3 2 3 4 3 4 5 4 2 1 1 1 1 1 1 2 3 3 3 3 3 2 3 3 3 6 7 7 7 7 7 6 6 6 6 6 5 5 5
8 9 9 8 8 7 7 8 9 9 8 8 8 8 8 8 7 7 7 8 8 9 10 10 10 9 8 9 9 9 7 7 8 7 6 6 6 5 3 2 2 3 4 5 6 5 3 1 1 2 2 2 2 2 0 1 1 1 2 2 1 1 2 3 3 3 2 0 0 2 3 3 4 5 5 6 6 6 6 6 6 5 4 4 4
8 10 10 8 8 8 8 9 10 10 9 8 8 8 8 7 8 7 7 7 8 9 10 10 9 8 8 7 8 8 6 6 7 6 6 5 3 2 3 2 1 2 2 3 4 4 3 1 0 1 1 1 1 1 2 2 1 1 1 2 2 2 2 3 4 4 4 2 1 1 3 2 2 3 3 4 4 4 4 4 4 3 3 3 3
9 10 10 8 8 8 8 8 9 9 8 8 7 7 7 7 8 7 7 7 7 8 10 10 9 8 7 5 5 6 6 8 7 5 5 5 2 1 3 3 1 1 2 2 2 3 2 2 1 1 1 1 0 1 1 1 1 1 1 2 3 3 3 4 3 2 2 1 1 1 1 2 2 3 3 3 3 2 2 2 2 2 2 3 4
9 9 9 9 8 7 7 8 8 8 7 6 6 6 5 6 7 8 8 8 6 7 9 11 10 10 9 6 4 3 4 10 9 7 6 4 4 4 3 3 4 4 4 3 3 3 3 3 4 3 3 3 3 2 2 3 4 3 3 3 4 5 6 6 5 4 2 2 3 3 2 1 2 3 3 4 5 4 4 4 4 4 5 5 5
9 9 9 9 8 7 8 7 7 7 6 5 5 5 5 6 7 8 8 8 8 8 8 10 11 12 12 10 7 4 3 6 8 8 10 9 5 5 6 5 6 7 6 6 5 5 5 6 7 7 6 6 6 5 5 6 6 6 7 7 7 8 9 10 10 10 8 7 6 6 6 5 4 3 3 3 4 4 4 5 5 6 6 5 5
8 8 9 9 8 8 8 7 7 7 6 7 6 6 6 6 7 7 8 8 8 8 8 10 11 11 12 12 10 6 4 4 5 5 11 16 10 7 9 8 7 8 8 7 6 6 7 8 8 8 7 7 8 8 8 8 9 10 10 10 9 10 10 11 12 12 12 11 9 8 8 8 7 7 6 6 5 5 4 5 5 5 5 3 4
9 9 9 9 9 9 8 8 8 7 7 8 8 7 6 7 7 7 8 8 8 8 8 9 9 10 11 11 10 7 5 6 6 6 11 16 15 13 12 9 9 10 9 9 9 9 10 11 11 10 10 10 11 11 11 10 11 11 12 10 9 9 10 10 11 11 11 10 9 9 8 8 7 7 7 7 7 6 6 6 6 6 6 5 4
10 10 10 10 10 10 9 8 8 8 8 8 9 7 7 8 7 7 7 7 7 8 8 7 8 9 10 9 8 8 7 9 9 8 11 15 17 17 13 9 9 12 12 12 12 13 13 13 13 13 13 14 14 14 12 12 11 11 10 9 8 8 8 9 9 9 9 9 8 8 7 7 7 7 7 6 6 6 6 6 6 6 6 6 6
8 9 10 10 10 9 8 6 5 6 6 7 8 7 7 7 7 7 7 6 6 7 7 7 7 9 9 8 7 7 7 8 8 10 11 13 18 18 13 10 12 14 14 14 14 14 15 15 15 15 16 16 15 14 12 11 10 9 8 7 7 7 7 8 8 9 9 8 8 7 6 6 6 5 5 5 4 4 5 5 6 6 6 7 7
7 9 10 9 8 6 5 3 2 3 4 6 6 6 6 6 6 5 5 5 4 5 5 5 6 7 8 7 5 5 5 5 6 8 9 10 15 17 15 14 16 17 16 16 16 16 16 16 16 17 17 16 15 13 11 10 9 8 6 6 6 7 8 9 9 10 10 9 9 8 7 6 5 5 4 4 4 4 4 5 6 6 6 7 7
6 8 10 9 6 4 3 2 1 1 4 6 6 6 5 5 5 5 4 4 3 3 3 3 4 5 7 7 7 6 5 4 5 7 8 9 12 17 18 17 17 20 19 18 19 19 18 17 17 17 16 15 14 12 10 8 8 7 5 5 7 8 9 10 11 11 12 12 11 10 9 7 7 6 6 5 5 5 5 6 6 7 7 8 8
5 7 10 9 7 4 3 2 1 1 4 6 7 7 6 6 6 5 5 4 3 3 3 3 3 4 6 8 8 6 6 6 6 7 7 8 12 16 19 20 20 20 20 19 19 19 19 18 17 16 15 13 12 10 9 8 7 7 6 7 8 10 11 12 13 14 14 14 15 14 13 11 9 8 8 7 7 7 7 7 7 7 8 8 9
5 7 9 9 7 5 3 1 1 1 5 7 7 7 6 6 5 5 5 5 4 3 3 3 2 2 5 8 9 8 8 8 8 7 5 5 10 12 12 17 22 21 19 19 18 18 18 18 16 15 14 12 11 10 9 8 8 8 8 8 9 10 11 12 14 15 16 17 18 19 18 16 14 12 11 10 10 9 8 8 8 8 8 8 9
5 8 10 9 8 5 3 2 1 2 5 7 7 7 6 5 4 4 4 4 3 3 2 2 1 1 4 8 10 9 9 9 8 7 6 6 9 8 5 7 16 20 20 18 18 18 18 17 17 15 13 12 11 10 10 9 9 9 8 8 8 8 10 11 12 14 15 17 19 20 21 20 19 17 15 14 13 12 11 10 9 9 9 8 9
7 9 10 9 7 5 3 3 2 4 5 6 7 7 6 5 4 3 3 3 3 2 2 2 1 1 4 7 9 10 10 9 8 8 8 9 9 8 5 4 6 15 21 20 18 18 17 16 15 15 13 12 11 11 11 10 9 8 7 6 5 6 7 9 11 12 13 15 17 19 21 22 23 22 19 17 15 14 14 13 11 11 10 10 10
8 9 9 8 7 5 3 3 4 6 7 7 6 6 6 6 6 5 5 4 3 3 2 2 1 2 4 7 9 9 9 9 9 10 11 11 10 9 8 7 5 7 15 19 19 17 15 14 13 13 13 12 12 12 11 10 8 7 6 4 4 4 5 7 9 11 13 15 17 19 21 23 24 24 23 20 17 16 15 14 13 12 12 11 11
7 8 9 8 7 5 4 3 5 8 9 8 8 7 7 7 6 7 7 5 4 3 2 3 3 5 7 9 9 9 10 10 11 12 12 11 11 9 8 8 7 6 6 12 17 16 14 13 13 12 13 13 13 12 11 9 8 6 5 3 3 3 4 6 9 11 13 15 17 19 21 23 24 25 24 22 19 17 16 15 14 14 14 14 14
6 8 9 9 8 6 5 5 7 10 10 10 10 10 9 8 7 8 8 8 6 4 3 5 5 6 7 7 8 8 9 10 10 11 10 10 10 8 6 6 7 6 5 5 12 16 15 14 14 13 14 14 14 13 11 9 7 5 3 2 2 3 4 6 9 10 12 14 16 18 20 22 24 25 25 23 20 18 17 16 15 15 15 15 15
8 8 9 9 9 7 6 7 9 10 11 12 12 11 10 9 9 9 9 9 8 6 5 5 6 6 5 5 6 6 7 8 9 9 8 9 9 8 6 4 6 7 5 5 10 15 16 16 15 15 15 15 14 13 11 8 6 4 1 1 2 3 4 6 8 9 11 13 15 17 19 22 24 26 26 24 21 19 18 17 16 16 16 16 16
10 10 10 10 10 9 9 9 10 11 12 13 13 12 11 10 9 9 8 8 8 8 7 6 6 6 6 6 6 7 7 8 8 8 7 8 8 8 7 6 6 6 6 5 6 11 16 17 16 15 15 15 13 11 10 8 6 5 3 3 3 4 5 6 8 9 11 13 15 17 19 22 25 26 25 23 20 19 18 17 17 16 15 16 16
11 11 11 12 12 11 10 11 12 12 12 12 12 12 10 9 8 8 8 7 7 8 9 8 7 6 6 6 6 6 7 7 7 8 8 8 8 8 8 8 7 7 7 5 4 7 13 17 16 15 14 14 13 11 10 8 7 6 6 5 5 6 6 7 8 10 11 13 16 18 20 23 25 25 24 22 20 19 18 18 17 16 16 16 16
12 12 13 13 13 12 11 12 13 12 11 11 10 10 9 8 7 6 7 7 6 7 8 8 8 8 7 7 7 6 7 7 7 7 8 9 9 10 10 11 10 9 9 7 5 5 9 14 16 16 14 13 12 11 10 8 7 7 7 8 8 8 8 8 9 10 13 15 17 19 21 24 25 25 23 22 21 20 19 18 18 17 17 17 17
13 14 14 15 15 14 14 14 13 12 10 9 8 7 7 7 7 6 5 5 5 5 6 6 7 8 8 8 8 8 8 7 7 7 7 8 10 11 13 13 14 13 11 10 8 6 6 10 13 15 15 13 12 11 9 8 7 7 8 8 9 9 9 10 11 12 14 16 19 21 23 24 25 24 23 22 21 20 19 19 18 18 18 18 18
13 15 15 16 16 16 15 14 12 11 9 8 7 7 7 7 6 6 5 4 3 4 5 5 5 5 7 8 8 8 8 8 8 8 8 9 10 11 13 15 16 16 13 11 9 7 7 9 12 14 15 14 12 11 10 9 8 7 7 8 9 10 10 11 12 13 15 17 20 22 23 25 25 24 23 21 20 19 19 19 19 19 19 20 20
12 15 16 17 17 17 16 14 11 10 8 8 7 7 7 8 7 5 4 3 3 3 4 4 3 3 4 5 6 7 8 8 7 7 8 8 8 8 10 12 13 14 13 11 10 9 9 10 12 13 13 13 12 10 10 9 9 8 8 8 9 10 11 12 13 14 16 18 21 23 25 25 25 23 22 21 20 20 19 19 19 20 20 21 22
11 15 16 17 18 17 16 14 11 10 9 7 6 6 6 8 8 7 5 4 3 4 4 5 5 5 4 4 5 5 6 6 7 7 7 7 7 7 7 8 9 11 13 12 11 11 11 11 12 13 13 12 11 11 10 10 10 10 9 9 10 11 12 12 14 16 17 19 21 23 24 24 23 22 21 20 20 19 19 19 19 20 21 21 22
9 13 15 17 17 16 15 14 12 10 8 6 4 4 5 7 8 8 7 6 5 6 6 6 7 7 7 7 7 8 8 8 8 8 8 8 8 7 7 8 9 11 12 12 12 12 12 12 13 12 12 11 11 10 10 10 11 11 11 11 11 12 12 13 15 17 19 21 22 23 23 23 22 20 19 18 18 18 19 19 20 21 22 23 23
9 12 15 17 18 16 15 14 12 10 7 5 5 6 7 7 8 8 8 8 8 8 8 8 8 9 9 10 10 11 13 13 12 11 10 10 10 10 9 10 11 11 12 11 11 11 12 12 12 12 12 12 11 11 11 11 11 11 12 12 12 13 14 15 17 19 20 21 22 22 22 22 21 19 19 19 19 20 20 21 22 22 24 25 26
11 13 16 18 19 17 16 14 13 11 8 8 10 11 10 9 8 8 9 10 10 10 10 10 11 12 12 12 13 14 16 17 17 15 13 12 12 12 12 12 12 12 12 11 10 11 11 12 13 13 13 13 13 12 12 12 12 12 13 13 14 14 15 16 17 19 20 20 20 20 20 20 20 20 21 21 22 22 22 23 24 25 26 27 27
13 15 16 18 19 19 18 16 15 14 12 11 13 15 14 12 11 11 12 13 13 13 13 14 14 14 14 14 15 16 17 19 19 18 16 15 13 13 13 13 13 13 12 12 11 11 11 11 12 13 14 14 13 13 14 14 14 14 14 15 16 16 16 17 18 19 19 19 19 19 19 20 20 21 22 22 22 22 23 25 26 27 28 28 28
14 16 17 18 19 20 19 18 17 17 16 14 15 17 16 15 14 14 15 16 17 16 16 17 17 16 16 16 16 16 16 18 20 20 19 17 16 15 15 15 16 15 14 13 13 13 12 12 13 14 14 13 13 13 14 14 14 15 15 15 16 17 17 18 19 18 19 19 19 19 19 20 21 21 21 22 22 23 25 27 28 30 30 29 30
16 17 19 20 21 21 21 21 20 19 18 17 17 19 18 17 17 17 18 18 19 19 19 18 18 18 18 17 16 15 15 16 18 19 19 18 18 17 17 17 17 17 15 14 14 15 15 15 15 15 15 15 15 15 15 15 14 15 15 16 17 18 18 18 18 18 18 19 19 20 20 21 22 22 22 24 25 26 27 29 29 30 30 30 30
19 18 19 20 21 22 23 23 22 21 20 20 20 21 20 18 18 19 19 20 20 21 20 19 18 19 19 17 15 14 13 14 16 17 18 18 18 18 17 17 17 17 16 16 16 16 16 16 16 16 16 15 15 15 14 14 14 15 16 17 17 17 17 17 17 17 18 19 20 21 22 23 24 25 25 26 28 28 28 29 28 27 28 28 28
21 20 20 20 21 23 25 25 24 24 23 22 23 23 21 20 20 21 21 21 21 22 21 20 19 20 19 18 16 14 13 12 13 15 17 18 17 17 17 17 17 16 16 15 15 15 15 14 14 14 14 13 13 13 13 13 14 15 15 15 15 15 15 16 16 17 18 20 21 22 23 24 25 27 28 28 29 28 27 27 26 25 26 27 28
23 23 22 21 20 22 24 25 25 25 25 24 24 24 23 22 23 23 23 23 24 24 23 22 21 20 20 19 17 15 13 13 13 15 16 17 16 15 15 15 14 14 13 13 13 12 12 12 11 11 11 10 10 10 11 11 11 12 12 12 13 13 14 15 16 17 18 20 21 22 23 24 26 28 29 30 29 28 27 26 25 25 27 28 28
22 22 21 19 18 20 22 24 24 25 25 25 24 24 23 23 24 25 26 26 27 26 26 24 22 21 20 19 18 17 15 14 14 15 16 16 15 13 13 12 11 11 11 11 10 10 9 9 9 8 8 7 7 8 8 9 9 10 10 11 11 12 13 14 16 17 19 20 21 23 24 26 27 29 31 32 32 30 27 26 26 26 27 27 28
16 17 18 17 18 20 22 23 24 24 24 24 24 25 24 24 25 27 28 29 30 29 27 25 24 23 22 20 19 18 16 15 15 16 15 15 14 13 12 11 11 10 10 9 9 8 8 8 7 7 7 6 6 6 7 8 9 10 10 10 11 12 13 14 15 17 19 20 22 24 26 27 28 29 31 32 33 31 29 28 28 28 27 27 27
Wind_Direction
149 152 146 143 139 134 136 137 136 134 138 150 164 163 149 142 149 153 162 171 177 181 186 190 192 192 192 198 202 198 201 209 200 159 136 118 87 51 57 67 64 53 35 32 31 25 50 83 111 143 161 161 162 159 150 137 124 116 106 93 81 72 69 66 63 67 73 77 80 82 83 84 82 80 79 76 71 67 67 66 62 58 52 47 47
150 153 151 146 141 141 145 150 156 159 163 170 177 176 163 156 159 163 170 177 184 188 190 189 190 193 195 202 209 208 209 217 210 163 148 149 125 42 47 59 68 61 35 37 35 17 28 44 61 73 125 163 166 169 166 156 147 133 114 95 79 66 59 56 53 53 58 63 68 72 75 76 77 78 78 76 72 65 63 64 64 63 61 56 52
154 156 159 153 146 147 153 160 170 179 184 185 184 182 178 177 177 176 180 184 190 194 194 192 192 195 200 207 214 216 216 218 210 170 166 178 180 70 47 42 81 76 37 38 30 37 47 20 16 31 52 115 153 168 173 165 165 169 165 131 83 68 58 54 49 49 48 48 50 54 60 61 64 66 68 69 69 68 64 62 63 64 66 66 63
158 161 165 156 151 157 165 171 179 187 192 193 188 183 183 183 182 181 186 187 188 191 191 191 193 197 202 207 210 211 214 214 201 186 191 205 208 167 196 248 139 101 51 51 25 54 95 58 355 8 36 63 42 39 153 186 194 240 252 264 243 81 64 49 34 38 38 37 39 41 45 49 53 53 56 60 62 66 64 59 58 59 62 67 69
163 166 170 163 161 167 172 179 184 191 196 199 196 190 187 185 183 184 185 182 181 184 186 189 195 200 203 208 209 206 211 213 206 201 204 212 208 185 194 222 197 170 143 90 28 59 103 102 29 8 34 52 25 24 39 34 16 342 318 319 315 328 0 6 4 16 30 33 33 35 42 44 49 50 50 54 55 58 59 56 52 53 57 62 68
171 171 173 170 172 176 178 182 183 188 195 201 202 195 191 190 187 186 182 176 177 181 185 188 192 198 203 209 210 208 212 211 212 207 207 212 201 191 208 227 222 210 191 137 51 55 103 123 113 65 56 39 21 28 34 30 29 23 16 11 22 29 26 21 7 2 4 13 18 24 36 42 45 47 47 48 49 49 51 51 48 49 53 56 61
177 176 174 173 182 190 187 185 185 187 193 200 203 200 197 196 191 188 183 180 182 186 188 186 184 191 193 197 200 205 212 208 212 208 209 213 202 208 235 226 216 208 203 170 124 56 87 130 156 160 128 67 62 55 31 31 36 38 45 55 63 65 61 60 54 46 33 17 10 3 9 17 28 38 40 39 38 39 40 44 44 45 49 52 55
186 186 185 188 196 201 195 191 194 194 198 202 201 200 195 195 196 195 189 184 189 193 193 187 182 186 185 186 189 195 202 201 205 207 211 212 201 217 220 206 209 213 210 185 148 96 84 104 145 156 141 108 108 94 58 48 49 56 71 77 78 77 71 66 61 57 54 47 42 35 26 12 9 24 39 39 36 38 38 41 44 45 47 47 48
196 197 198 202 204 203 198 197 205 207 207 204 198 195 191 190 196 200 195 186 193 197 194 189 185 186 185 185 184 185 191 195 198 203 211 207 195 207 207 201 213 217 203 181 168 148 125 99 112 129 132 126 119 104 93 96 81 81 82 75 72 72 68 64 60 59 58 54 50 48 45 42 44 44 46 47 46 46 46 48 48 48 48 46 45
205 206 204 207 205 200 197 201 215 219 211 206 201 196 191 191 194 199 197 186 187 195 192 189 188 186 188 185 184 187 190 195 196 197 206 202 198 204 202 206 211 207 192 178 181 173 153 153 109 110 122 130 124 108 95 93 95 89 76 62 52 46 44 48 51 56 61 57 51 48 45 45 51 59 61 56 55 56 53 53 52 51 50 49 51
212 212 207 205 206 200 199 206 218 220 213 210 210 205 201 201 196 193 197 190 183 187 190 191 190 188 191 186 184 189 191 194 192 189 193 195 200 204 200 212 212 200 190 179 184 180 156 148 105 95 105 118 120 117 106 100 94 77 65 60 42 28 18 17 24 44 61 56 48 45 45 46 49 55 64 64 61 61 59 57 57 57 55 54 56
212 211 209 206 206 202 203 208 213 213 210 212 214 214 209 204 198 191 196 196 182 181 192 196 195 188 186 185 181 184 189 193 191 188 191 195 201 207 214 219 212 199 189 182 192 189 167 152 113 89 92 101 112 126 127 124 112 82 67 46 34 29 6 358 356 35 53 38 34 39 41 46 50 53 61 67 70 71 72 73 73 72 70 66 61
208 205 207 205 201 201 205 206 205 205 206 208 207 209 207 197 194 189 188 192 186 183 187 194 203 194 183 182 180 179 186 192 195 198 202 205 205 211 225 226 214 201 187 182 203 199 181 179 137 98 92 94 100 121 141 164 172 120 75 25 26 17 355 358 5 54 40 8 5 26 33 40 48 55 60 67 75 81 84 85 86 86 83 80 74
199 198 198 196 197 201 204 201 199 201 207 209 203 202 202 194 190 191 188 185 190 194 187 189 203 205 194 186 180 178 187 195 199 205 207 207 208 207 221 233 223 209 189 183 204 195 168 185 138 118 117 101 86 99 142 216 288 294 326 10 21 335 340 3 21 59 53 339 338 353 14 37 44 50 59 66 73 79 83 86 87 88 88 88 84
188 187 186 186 190 192 195 197 195 198 205 209 205 199 196 192 188 194 194 186 191 197 189 188 197 203 200 190 185 182 185 199 203 205 210 211 212 205 207 235 224 196 166 172 200 188 155 156 131 142 155 127 63 50 334 310 324 325 344 358 11 315 325 343 357 22 21 315 158 298 307 13 30 31 46 60 70 79 85 88 89 89 90 84 74
179 178 179 183 186 185 190 196 195 196 201 203 202 200 194 190 191 194 197 193 197 199 190 190 195 197 195 186 185 182 171 187 193 190 200 204 218 213 167 180 214 175 129 137 176 166 140 110 90 172 180 186 299 310 305 305 309 348 349 334 342 325 316 330 334 339 339 336 124 266 281 292 340 354 12 34 49 67 79 86 83 76 63 48 39
176 178 181 184 185 184 188 191 193 195 196 190 187 194 191 186 194 199 204 204 209 212 202 194 193 195 197 184 179 182 179 186 177 160 186 187 165 140 146 152 153 161 145 134 143 131 90 37 53 131 129 94 116 240 287 266 173 50 356 322 339 343 347 358 350 328 318 319 114 114 270 260 277 297 304 335 354 359 3 14 22 13 3 355 357
176 178 181 185 186 184 186 187 190 190 186 179 177 190 191 184 190 198 204 206 207 215 213 204 198 196 203 211 209 210 203 193 173 139 145 145 123 131 135 123 98 99 119 115 110 102 74 63 81 100 106 106 119 129 122 111 103 83 67 36 21 30 40 45 45 58 87 98 103 90 59 22 300 288 288 297 301 302 306 316 328 328 327 334 338
173 177 179 181 186 186 188 188 190 192 187 181 177 187 196 191 192 196 201 205 202 204 208 211 212 206 208 218 223 244 277 208 186 157 134 115 114 137 121 112 108 104 112 112 103 100 93 88 92 97 101 107 113 111 102 96 89 83 80 70 60 61 63 62 63 72 84 87 87 81 64 50 38 24 4 338 320 310 307 314 320 315 312 316 314
168 179 182 184 192 196 197 197 197 200 195 188 185 189 198 198 199 201 203 207 206 204 203 214 226 222 216 219 220 239 276 224 207 198 151 128 123 129 118 121 124 113 113 116 110 107 105 101 100 102 106 108 109 107 99 91 89 89 88 82 74 67 63 61 62 67 74 76 74 69 60 54 50 46 39 33 21 12 4 351 349 345 339 333 318
177 187 191 192 197 198 196 194 195 200 202 200 196 196 203 204 200 203 207 208 209 211 207 215 231 230 224 223 221 229 239 203 198 212 170 140 132 135 133 136 129 115 115 118 118 115 111 108 105 104 108 109 106 105 101 97 96 96 93 87 76 66 59 57 57 59 62 65 65 61 54 48 45 43 38 35 28 20 15 7 4 3 1 0 348
180 183 184 185 187 186 184 186 189 196 202 199 193 196 206 207 205 207 211 208 211 219 215 210 220 224 222 223 226 231 219 200 197 195 175 152 142 141 143 151 136 119 116 117 118 116 109 106 106 106 106 105 104 103 103 103 100 96 92 84 74 66 59 55 54 55 56 57 56 54 52 45 40 38 33 28 23 15 8 2 358 354 349 346 340
166 173 176 178 181 180 179 182 187 195 193 182 180 191 201 203 206 208 210 208 208 220 219 207 210 214 215 220 232 240 224 211 209 199 185 168 155 146 145 153 138 120 116 117 117 114 109 107 108 108 106 104 105 107 108 107 101 93 86 79 71 65 62 58 55 54 52 51 51 47 43 40 35 33 29 23 16 6 357 350 344 339 336 331 326
158 175 182 182 182 181 175 167 174 189 178 168 171 183 193 195 198 197 197 196 194 206 211 205 203 203 208 210 202 209 218 226 221 202 194 185 166 152 147 146 132 121 119 119 116 112 110 111 110 108 109 110 112 114 114 109 102 94 86 79 72 65 62 60 56 52 48 43 40 35 29 24 17 10 6 0 352 346 338 333 328 326 323 320 318
165 182 194 192 188 181 163 138 126 165 164 166 172 178 185 183 179 179 182 184 181 178 172 177 192 194 193 185 170 177 197 204 201 188 179 179 167 150 143 142 132 124 122 120 117 115 112 112 111 110 112 115 119 119 117 113 107 102 95 85 76 69 64 62 58 54 50 45 39 32 23 14 5 356 347 340 335 330 324 321 319 318 317 315 313
184 191 195 191 183 169 151 124 64 161 169 172 177 179 181 176 174 178 183 187 179 158 151 156 176 185 181 173 164 170 181 176 177 181 174 171 168 154 143 138 131 126 127 125 122 121 119 117 116 116 118 122 125 125 124 123 119 112 101 90 85 81 76 71 66 61 56 51 46 40 32 22 13 5 358 351 343 338 332 326 323 320 318 316 312
210 196 185 174 166 158 149 112 49 141 173 180 185 184 182 179 179 181 184 185 171 155 154 160 173 175 171 168 164 168 174 169 171 183 189 183 178 169 151 141 135 131 132 132 129 128 127 127 126 127 129 130 131 131 129 128 124 117 111 104 99 94 84 72 65 61 56 52 48 44 39 31 22 14 7 3 359 354 348 341 336 334 331 328 321
198 181 171 161 156 153 143 118 96 153 174 187 192 190 187 185 186 189 190 185 165 163 175 172 221 210 169 168 168 168 169 168 175 186 192 192 183 170 143 144 146 142 139 138 138 137 135 135 134 133 135 134 132 133 132 131 129 125 121 115 106 95 78 62 56 55 52 49 46 42 37 32 26 18 9 4 1 359 357 354 349 346 346 344 339
176 168 163 157 157 160 142 130 154 169 174 180 185 188 189 189 193 194 199 195 178 192 207 185 231 231 179 169 165 165 167 166 170 170 167 175 175 152 104 79 141 150 149 146 143 143 141 139 139 139 138 136 135 137 139 139 136 131 124 114 102 86 66 49 43 41 39 35 32 30 28 25 22 17 12 4 358 356 355 355 353 351 350 348 347
172 169 168 164 166 170 150 137 162 170 171 166 163 171 177 182 190 191 199 203 196 208 196 149 169 173 158 154 152 157 158 151 146 144 151 162 159 139 112 88 76 129 150 151 147 146 147 145 144 145 142 141 143 145 147 146 142 135 124 108 90 77 59 41 32 27 24 19 16 16 15 14 12 11 10 6 1 356 353 352 352 350 349 347 345
177 177 179 178 177 175 156 147 157 160 161 157 152 151 154 161 173 184 195 200 203 214 168 135 146 145 138 136 138 144 142 134 132 135 146 158 153 136 118 103 87 83 129 154 152 149 150 149 146 147 147 147 150 152 154 153 149 139 125 106 83 72 50 30 21 16 14 10 8 7 7 6 4 2 2 3 2 359 354 351 348 347 346 345 343
184 184 188 187 184 178 163 155 154 151 149 147 145 142 143 149 157 170 185 190 199 210 169 137 139 142 141 137 135 139 138 133 133 138 148 161 162 155 136 113 110 105 98 142 151 147 148 149 148 150 153 153 154 156 158 158 156 146 127 99 63 42 23 12 8 6 6 3 1 1 0 359 358 356 356 356 357 357 354 350 346 344 343 341 340
190 186 187 186 183 176 167 160 152 147 143 141 140 138 139 145 147 154 166 177 192 200 175 147 142 147 158 159 152 153 153 146 144 148 158 170 178 184 183 159 141 130 117 132 147 148 150 153 152 153 156 159 160 159 158 159 159 161 157 52 18 4 355 350 350 353 354 354 353 353 353 352 352 351 351 352 353 352 350 347 345 343 341 340 337
194 189 184 180 177 172 168 163 155 150 146 142 139 136 137 138 136 136 143 160 182 191 181 164 152 154 165 166 158 159 165 166 163 164 172 183 192 203 213 209 183 158 146 148 152 152 155 156 155 156 158 163 165 162 160 164 168 187 235 278 304 319 326 326 331 338 341 343 343 344 345 346 346 346 347 348 348 346 344 343 341 340 338 337 335
198 194 185 179 175 174 172 166 161 156 151 145 140 136 137 137 133 130 129 137 161 179 186 185 176 169 172 173 168 164 167 170 173 180 188 195 202 209 221 227 215 194 179 176 176 167 163 161 160 162 163 165 168 168 170 178 188 209 238 264 282 292 303 310 317 325 329 332 334 338 342 342 342 343 343 344 344 342 340 339 338 338 336 335 333
200 194 187 182 179 178 176 171 166 162 157 152 148 145 146 145 143 142 137 135 143 158 177 191 196 193 190 190 189 187 186 184 184 191 199 204 211 216 222 229 228 219 206 199 208 208 186 174 169 169 172 172 174 176 181 190 202 219 239 256 267 276 289 298 305 315 321 325 330 335 338 339 339 340 340 340 340 338 337 337 336 336 334 332 330
197 193 187 183 181 180 178 176 174 171 168 166 164 162 162 159 155 154 151 148 153 160 170 186 200 207 208 207 208 205 203 203 207 216 222 223 228 229 230 232 233 231 224 215 215 219 212 198 185 179 181 185 189 191 197 208 218 230 243 253 261 272 283 292 300 310 317 322 327 332 334 336 337 337 337 337 336 334 334 334 333 332 330 328 326
197 194 188 184 183 181 180 182 184 183 180 180 182 183 182 178 169 164 161 157 163 177 184 187 197 213 220 222 225 226 223 220 223 233 236 232 232 235 236 236 236 235 232 222 215 213 211 209 202 193 190 194 199 204 213 223 232 242 249 253 260 268 278 286 296 306 313 319 325 329 331 332 333 333 333 333 331 331 331 330 329 327 324 323 321
201 198 191 186 184 183 186 190 193 189 184 184 191 196 198 198 195 189 182 178 183 198 211 222 229 232 230 230 233 238 240 236 233 239 241 234 230 229 230 231 230 228 222 215 216 221 216 209 207 205 202 203 207 215 226 234 238 243 248 252 257 264 273 284 294 303 311 318 323 325 327 328 328 329 330 329 329 329 328 326 324 322 320 318 317
207 203 197 191 188 189 192 196 197 194 193 195 200 208 216 216 213 211 211 217 226 232 239 252 263 263 256 252 252 252 252 248 242 240 238 233 227 219 213 210 206 207 209 213 222 228 221 214 211 211 211 214 216 222 229 235 238 241 247 253 258 264 273 284 293 302 311 317 320 322 323 323 324 325 326 327 327 326 325 323 321 320 319 317 316
210 207 205 199 195 194 197 199 201 201 201 207 223 238 246 243 235 231 234 244 255 256 259 267 273 277 276 274 275 275 271 265 255 245 239 232 227 222 215 208 203 204 211 218 225 226 221 218 217 216 217 221 225 229 231 232 235 240 246 252 258 265 274 285 295 304 310 313 315 317 317 318 320 322 325 325 325 325 324 324 322 321 320 319 318
213 210 211 208 202 202 206 207 207 208 210 220 247 263 266 260 254 250 246 255 269 270 270 275 279 283 285 283 283 282 277 272 264 255 247 239 231 226 220 216 215 218 221 222 225 228 228 226 226 228 230 232 233 237 238 237 238 242 247 252 260 269 280 290 298 303 307 309 312 314 315 317 321 324 326 328 329 328 327 326 324 323 322 321 320
216 213 213 212 210 210 213 214 214 220 225 229 241 256 265 260 253 255 254 259 271 274 275 279 281 284 284 282 284 285 278 270 263 257 251 244 238 232 225 219 218 218 220 221 223 227 231 232 233 237 240 241 240 238 239 242 244 248 253 259 266 275 284 293 299 302 305 308 312 315 317 320 323 325 328 330 330 329 328 326 324 324 323 321 319
219 217 215 214 213 214 217 217 220 229 234 234 238 249 261 263 255 257 262 265 269 274 277 280 282 284 284 284 288 289 280 268 259 254 251 247 242 237 233 231 229 228 227 228 229 230 232 234 237 238 240 241 239 235 236 240 245 250 256 262 269 278 287 295 301 305 307 310 313 316 319 322 324 326 327 327 327 327 326 325 324 323 322 321 320
220 221 219 218 218 219 222 224 227 234 237 238 241 248 259 264 259 259 264 266 268 272 277 280 281 282 283 286 290 290 282 268 256 250 249 248 246 244 241 239 239 239 238 237 236 236 234 233 234 235 236 236 236 237 239 244 249 256 263 271 280 288 295 300 304 307 309 311 314 317 320 322 323 325 325 324 325 326 326 325 324 323 323 322 322
222 225 224 224 224 226 231 233 234 237 240 239 243 251 259 262 260 261 263 265 267 269 273 276 279 281 283 287 290 289 281 268 256 249 247 247 248 246 241 236 235 236 237 238 238 236 234 232 231 231 232 234 238 243 249 255 260 267 275 282 288 294 299 302 306 309 311 314 317 321 323 323 324 324 324 323 324 325 325 324 324 323 323 324 324
224 227 228 231 235 238 239 239 242 248 249 244 244 253 260 262 262 262 262 262 264 266 268 271 276 279 281 284 288 286 277 264 255 249 245 244 244 241 239 238 237 236 236 237 237 236 235 235 235 235 236 238 243 248 254 261 268 274 280 286 291 296 301 305 309 313 316 317 320 321 322 322 322 321 321 321 321 322 323 323 324 325 325 325 325
226 230 237 245 250 249 246 246 253 257 253 247 249 255 260 263 264 263 260 259 262 263 264 268 273 276 279 282 284 279 267 253 245 243 241 240 239 239 242 243 240 236 236 235 235 235 236 237 239 240 241 243 247 252 259 266 273 279 284 290 295 299 303 307 312 316 317 316 317 318 319 320 321 319 319 320 320 321 324 324 324 325 325 324 324
232 238 247 252 252 251 251 253 258 258 253 251 255 258 259 261 263 261 258 257 259 261 262 265 269 272 274 277 278 270 256 241 234 235 239 241 241 238 239 241 237 235 234 233 233 234 235 237 239 240 242 246 250 256 263 269 275 282 287 293 297 301 307 312 313 314 314 313 315 318 319 320 321 319 319 321 321 323 325 325 325 325 324 323 324
240 244 249 249 247 249 253 255 257 258 257 259 262 261 258 258 259 259 257 255 256 258 259 261 264 268 270 270 267 260 246 233 230 233 236 239 240 236 234 235 234 232 231 230 232 233 232 231 232 232 235 240 245 254 265 274 283 289 295 301 306 310 314 315 313 314 315 316 320 322 321 321 322 322 322 322 321 322 325 324 323 324 323 322 323
243 245 246 246 246 249 253 255 258 260 260 261 263 261 257 254 254 255 255 255 255 255 257 258 260 264 265 261 256 248 235 225 226 231 232 232 231 228 226 226 225 223 222 221 222 222 219 216 214 215 221 231 246 265 280 290 298 304 309 314 316 315 313 313 315 319 322 323 324 325 323 323 323 323 322 322 321 321 323 323 322 323 323 324 325